Time,TemperatureF,DewpointF,PressureIn,WindDirection,WindDirectionDegrees,WindSpeedMPH,WindSpeedGustMPH,Humidity,HourlyPrecipIn,Conditions,Clouds,dailyrainin,SoftwareType,DateUTC
2013-01-21 00:04:00,53.9,27.5,30.02,West,264,0.0,1.0,36,0.00,,,0.00,Wunderground v.1.15,2013-01-21 08:04:00,
2013-01-21 00:09:00,54.1,27.0,30.02,West,264,1.0,1.0,35,0.00,,,0.00,Wunderground v.1.15,2013-01-21 08:09:00,
2013-01-21 00:14:00,54.4,27.3,30.01,West,264,0.0,1.0,35,0.00,,,0.00,Wunderground v.1.15,2013-01-21 08:14:00,
2013-01-21 00:19:00,54.7,26.8,30.01,West,264,0.0,1.0,34,0.00,,,0.00,Wunderground v.1.15,2013-01-21 08:19:00,
2013-01-21 00:24:00,54.8,26.9,30.01,West,264,0.0,2.0,34,0.00,,,0.00,Wunderground v.1.15,2013-01-21 08:24:00,
2013-01-21 00:29:00,54.8,26.9,30.01,West,264,0.0,2.0,34,0.00,,,0.00,Wunderground v.1.15,2013-01-21 08:29:00,
2013-01-21 00:34:00,54.8,27.6,30.01,West,264,0.0,2.0,35,0.00,,,0.00,Wunderground v.1.15,2013-01-21 08:34:00,
2013-01-21 00:39:00,54.7,27.6,30.01,West,264,1.0,2.0,35,0.00,,,0.00,Wunderground v.1.15,2013-01-21 08:39:00,
2013-01-21 00:44:00,54.5,27.4,30.00,West,264,0.0,2.0,35,0.00,,,0.00,Wunderground v.1.15,2013-01-21 08:44:00,
2013-01-21 00:49:00,54.4,28.0,30.00,West,264,0.0,2.0,36,0.00,,,0.00,Wunderground v.1.15,2013-01-21 08:49:00,
2013-01-21 00:54:00,54.2,27.8,30.00,West,264,0.0,2.0,36,0.00,,,0.00,Wunderground v.1.15,2013-01-21 08:54:00,
2013-01-21 00:59:00,54.2,27.8,30.00,West,264,0.0,2.0,36,0.00,,,0.00,Wunderground v.1.15,2013-01-21 08:59:00,
2013-01-21 01:04:00,54.2,28.5,30.00,NNW,347,0.0,3.0,37,0.00,,,0.00,Wunderground v.1.15,2013-01-21 09:04:00,
2013-01-21 01:09:00,54.4,27.3,30.00,NNW,347,1.0,3.0,35,0.00,,,0.00,Wunderground v.1.15,2013-01-21 09:09:00,
2013-01-21 01:14:00,54.8,26.2,30.00,NNW,347,0.0,1.0,33,0.00,,,0.00,Wunderground v.1.15,2013-01-21 09:14:00,
2013-01-21 01:19:00,55.0,27.1,30.00,NNW,347,0.0,1.0,34,0.00,,,0.00,Wunderground v.1.15,2013-01-21 09:19:00,
2013-01-21 01:24:00,54.8,26.9,30.00,NNW,347,0.0,1.0,34,0.00,,,0.00,Wunderground v.1.15,2013-01-21 09:24:00,
2013-01-21 01:29:00,55.1,25.7,29.99,NNW,347,2.0,2.0,32,0.00,,,0.00,Wunderground v.1.15,2013-01-21 09:29:00,
2013-01-21 01:34:00,56.7,24.8,29.99,SE,124,2.0,9.0,29,0.00,,,0.00,Wunderground v.1.15,2013-01-21 09:34:00,
2013-01-21 01:39:00,59.5,23.6,29.99,East,92,3.0,9.0,25,0.00,,,0.00,Wunderground v.1.15,2013-01-21 09:39:00,
2013-01-21 01:44:00,60.5,23.5,29.99,SE,144,1.0,3.0,24,0.00,,,0.00,Wunderground v.1.15,2013-01-21 09:44:00,
2013-01-21 01:49:00,61.2,23.1,29.99,South,188,0.0,3.0,23,0.00,,,0.00,Wunderground v.1.15,2013-01-21 09:49:00,
2013-01-21 01:54:00,61.3,23.1,29.99,West,275,2.0,4.0,23,0.00,,,0.00,Wunderground v.1.15,2013-01-21 09:54:00,
2013-01-21 01:59:00,61.5,23.3,29.98,West,275,0.0,4.0,23,0.00,,,0.00,Wunderground v.1.15,2013-01-21 09:59:00,
2013-01-21 02:04:00,61.2,23.1,29.98,West,275,2.0,3.0,23,0.00,,,0.00,Wunderground v.1.15,2013-01-21 10:04:00,
2013-01-21 02:09:00,60.4,24.4,29.98,West,275,0.0,3.0,25,0.00,,,0.00,Wunderground v.1.15,2013-01-21 10:09:00,
2013-01-21 02:14:00,59.2,24.3,29.98,West,267,0.0,5.0,26,0.00,,,0.00,Wunderground v.1.15,2013-01-21 10:14:00,
2013-01-21 02:19:00,59.0,23.2,29.98,NW,314,0.0,5.0,25,0.00,,,0.00,Wunderground v.1.15,2013-01-21 10:19:00,
2013-01-21 02:24:00,59.2,22.4,29.98,NW,314,0.0,3.0,24,0.00,,,0.00,Wunderground v.1.15,2013-01-21 10:24:00,
2013-01-21 02:29:00,59.3,22.5,29.98,NW,314,1.0,3.0,24,0.00,,,0.00,Wunderground v.1.15,2013-01-21 10:29:00,
2013-01-21 02:34:00,59.3,24.4,29.98,NW,314,2.0,2.0,26,0.00,,,0.00,Wunderground v.1.15,2013-01-21 10:34:00,
2013-01-21 02:39:00,59.2,24.3,29.98,NNE,20,3.0,4.0,26,0.00,,,0.00,Wunderground v.1.15,2013-01-21 10:39:00,
2013-01-21 02:44:00,58.9,24.9,29.97,NNE,26,1.0,3.0,27,0.00,,,0.00,Wunderground v.1.15,2013-01-21 10:44:00,
2013-01-21 02:49:00,58.6,24.7,29.97,NNE,26,0.0,3.0,27,0.00,,,0.00,Wunderground v.1.15,2013-01-21 10:49:00,
2013-01-21 02:54:00,58.6,24.7,29.97,NNE,13,2.0,3.0,27,0.00,,,0.00,Wunderground v.1.15,2013-01-21 10:54:00,
2013-01-21 02:59:00,58.7,25.6,29.96,SE,140,0.0,3.0,28,0.00,,,0.00,Wunderground v.1.15,2013-01-21 10:59:00,
2013-01-21 03:04:00,58.4,25.4,29.96,SW,230,0.0,3.0,28,0.00,,,0.00,Wunderground v.1.15,2013-01-21 11:04:00,
2013-01-21 03:09:00,58.0,25.0,29.96,SSE,162,0.0,3.0,28,0.00,,,0.00,Wunderground v.1.15,2013-01-21 11:09:00,
2013-01-21 03:14:00,57.8,24.9,29.96,NE,43,3.0,3.0,28,0.00,,,0.00,Wunderground v.1.15,2013-01-21 11:14:00,
2013-01-21 03:19:00,58.0,25.0,29.96,ENE,78,3.0,5.0,28,0.00,,,0.00,Wunderground v.1.15,2013-01-21 11:19:00,
2013-01-21 03:24:00,58.4,24.5,29.96,East,99,1.0,5.0,27,0.00,,,0.00,Wunderground v.1.15,2013-01-21 11:24:00,
2013-01-21 03:29:00,58.6,25.6,29.96,ESE,120,3.0,6.0,28,0.00,,,0.00,Wunderground v.1.15,2013-01-21 11:29:00,
2013-01-21 03:34:00,58.6,26.4,29.96,ENE,72,5.0,6.0,29,0.00,,,0.00,Wunderground v.1.15,2013-01-21 11:34:00,
2013-01-21 03:39:00,58.6,26.4,29.96,ESE,111,0.0,6.0,29,0.00,,,0.00,Wunderground v.1.15,2013-01-21 11:39:00,
2013-01-21 03:44:00,58.0,26.7,29.96,West,270,3.0,4.0,30,0.00,,,0.00,Wunderground v.1.15,2013-01-21 11:44:00,
2013-01-21 03:49:00,57.2,26.0,29.96,ENE,58,1.0,4.0,30,0.00,,,0.00,Wunderground v.1.15,2013-01-21 11:49:00,
2013-01-21 03:54:00,56.9,26.5,29.96,ESE,113,0.0,3.0,31,0.00,,,0.00,Wunderground v.1.15,2013-01-21 11:54:00,
2013-01-21 03:59:00,56.7,26.4,29.96,West,259,0.0,4.0,31,0.00,,,0.00,Wunderground v.1.15,2013-01-21 11:59:00,
2013-01-21 04:04:00,56.3,26.8,29.96,WSW,258,0.0,4.0,32,0.00,,,0.00,Wunderground v.1.15,2013-01-21 12:04:00,
2013-01-21 04:09:00,56.0,25.8,29.96,SE,129,2.0,4.0,31,0.00,,,0.00,Wunderground v.1.15,2013-01-21 12:09:00,
2013-01-21 04:14:00,56.2,26.7,29.97,SSW,192,0.0,2.0,32,0.00,,,0.00,Wunderground v.1.15,2013-01-21 12:14:00,
2013-01-21 04:19:00,56.2,26.7,29.97,SSW,193,0.0,2.0,32,0.00,,,0.00,Wunderground v.1.15,2013-01-21 12:19:00,
2013-01-21 04:24:00,56.5,25.4,29.97,West,262,4.0,4.0,30,0.00,,,0.00,Wunderground v.1.15,2013-01-21 12:24:00,
2013-01-21 04:29:00,57.0,25.0,29.97,West,265,1.0,4.0,29,0.00,,,0.00,Wunderground v.1.15,2013-01-21 12:29:00,
2013-01-21 04:34:00,57.3,26.1,29.97,WSW,243,1.0,3.0,30,0.00,,,0.00,Wunderground v.1.15,2013-01-21 12:34:00,
2013-01-21 04:39:00,57.8,24.9,29.97,West,280,3.0,4.0,28,0.00,,,0.00,Wunderground v.1.15,2013-01-21 12:39:00,
2013-01-21 04:44:00,58.4,25.4,29.97,West,274,2.0,3.0,28,0.00,,,0.00,Wunderground v.1.15,2013-01-21 12:44:00,
2013-01-21 04:49:00,58.9,24.9,29.97,West,274,2.0,4.0,27,0.00,,,0.00,Wunderground v.1.15,2013-01-21 12:49:00,
2013-01-21 04:54:00,59.0,25.9,29.97,WSW,245,0.0,3.0,28,0.00,,,0.00,Wunderground v.1.15,2013-01-21 12:54:00,
2013-01-21 04:59:00,58.9,25.8,29.96,NE,49,1.0,3.0,28,0.00,,,0.00,Wunderground v.1.15,2013-01-21 12:59:00,
2013-01-21 05:04:00,59.0,25.0,29.96,ESE,107,0.0,2.0,27,0.00,,,0.00,Wunderground v.1.15,2013-01-21 13:04:00,
2013-01-21 05:09:00,58.4,26.2,29.96,ESE,107,0.0,2.0,29,0.00,,,0.00,Wunderground v.1.15,2013-01-21 13:09:00,
2013-01-21 05:14:00,57.6,25.5,29.96,North,11,0.0,5.0,29,0.00,,,0.00,Wunderground v.1.15,2013-01-21 13:14:00,
2013-01-21 05:19:00,57.2,26.0,29.96,North,11,0.0,5.0,30,0.00,,,0.00,Wunderground v.1.15,2013-01-21 13:19:00,
2013-01-21 05:24:00,56.9,25.7,29.96,North,11,0.0,2.0,30,0.00,,,0.00,Wunderground v.1.15,2013-01-21 13:24:00,
2013-01-21 05:29:00,56.7,26.4,29.95,North,11,0.0,2.0,31,0.00,,,0.00,Wunderground v.1.15,2013-01-21 13:29:00,
2013-01-21 05:34:00,56.3,26.0,29.95,WNW,300,3.0,4.0,31,0.00,,,0.00,Wunderground v.1.15,2013-01-21 13:34:00,
2013-01-21 05:39:00,56.3,25.2,29.95,WNW,300,0.0,4.0,30,0.00,,,0.00,Wunderground v.1.15,2013-01-21 13:39:00,
2013-01-21 05:44:00,56.2,25.9,29.95,WNW,300,0.0,1.0,31,0.00,,,0.00,Wunderground v.1.15,2013-01-21 13:44:00,
2013-01-21 05:49:00,56.2,25.9,29.95,South,188,0.0,2.0,31,0.00,,,0.00,Wunderground v.1.15,2013-01-21 13:49:00,
2013-01-21 05:54:00,56.3,26.8,29.95,East,84,0.0,2.0,32,0.00,,,0.00,Wunderground v.1.15,2013-01-21 13:54:00,
2013-01-21 05:59:00,56.6,27.0,29.96,North,349,0.0,3.0,32,0.00,,,0.00,Wunderground v.1.15,2013-01-21 13:59:00,
2013-01-21 06:04:00,56.5,28.4,29.96,North,11,4.0,5.0,34,0.00,,,0.00,Wunderground v.1.15,2013-01-21 14:04:00,
2013-01-21 06:09:00,56.5,29.1,29.96,ESE,112,0.0,5.0,35,0.00,,,0.00,Wunderground v.1.15,2013-01-21 14:09:00,
2013-01-21 06:14:00,56.3,29.0,29.97,East,97,1.0,3.0,35,0.00,,,0.00,Wunderground v.1.15,2013-01-21 14:14:00,
2013-01-21 06:19:00,56.6,27.8,29.97,ENE,72,2.0,3.0,33,0.00,,,0.00,Wunderground v.1.15,2013-01-21 14:19:00,
2013-01-21 06:24:00,57.8,28.1,29.97,East,96,3.0,12.0,32,0.00,,,0.00,Wunderground v.1.15,2013-01-21 14:24:00,
2013-01-21 06:29:00,58.7,26.5,29.97,East,86,3.0,12.0,29,0.00,,,0.00,Wunderground v.1.15,2013-01-21 14:29:00,
2013-01-21 06:34:00,59.2,26.9,29.97,SE,141,4.0,7.0,29,0.00,,,0.00,Wunderground v.1.15,2013-01-21 14:34:00,
2013-01-21 06:39:00,59.2,26.9,29.97,ESE,105,0.0,7.0,29,0.00,,,0.00,Wunderground v.1.15,2013-01-21 14:39:00,
2013-01-21 06:44:00,59.0,26.8,29.98,ESE,119,2.0,5.0,29,0.00,,,0.00,Wunderground v.1.15,2013-01-21 14:44:00,
2013-01-21 06:49:00,59.3,26.2,29.98,ESE,118,5.0,9.0,28,0.00,,,0.00,Wunderground v.1.15,2013-01-21 14:49:00,
2013-01-21 06:54:00,59.5,26.3,29.98,SE,124,1.0,11.0,28,0.00,,,0.00,Wunderground v.1.15,2013-01-21 14:54:00,
2013-01-21 06:59:00,59.8,26.6,29.98,ESE,103,2.0,11.0,28,0.00,,,0.00,Wunderground v.1.15,2013-01-21 14:59:00,
2013-01-21 07:04:00,59.3,27.0,29.98,ESE,107,2.0,10.0,29,0.00,,,0.00,Wunderground v.1.15,2013-01-21 15:04:00,
2013-01-21 07:09:00,58.7,28.1,29.98,East,95,2.0,10.0,31,0.00,,,0.00,Wunderground v.1.15,2013-01-21 15:09:00,
2013-01-21 07:14:00,58.4,27.1,30.00,ESE,117,2.0,6.0,30,0.00,,,0.00,Wunderground v.1.15,2013-01-21 15:14:00,
2013-01-21 07:19:00,58.4,27.9,30.00,ESE,105,3.0,6.0,31,0.00,,,0.00,Wunderground v.1.15,2013-01-21 15:19:00,
2013-01-21 07:24:00,58.4,27.1,30.00,NE,35,0.0,5.0,30,0.00,,,0.00,Wunderground v.1.15,2013-01-21 15:24:00,
2013-01-21 07:29:00,58.4,27.1,30.00,SSW,194,2.0,5.0,30,0.00,,,0.00,Wunderground v.1.15,2013-01-21 15:29:00,
2013-01-21 07:34:00,58.6,27.2,30.00,ESE,102,4.0,4.0,30,0.00,,,0.00,Wunderground v.1.15,2013-01-21 15:34:00,
2013-01-21 07:39:00,59.2,26.1,30.00,East,94,1.0,10.0,28,0.00,,,0.00,Wunderground v.1.15,2013-01-21 15:39:00,
2013-01-21 07:44:00,59.8,26.6,30.00,ENE,69,1.0,7.0,28,0.00,,,0.00,Wunderground v.1.15,2013-01-21 15:44:00,
2013-01-21 07:49:00,60.1,26.9,30.00,North,5,2.0,7.0,28,0.00,,,0.00,Wunderground v.1.15,2013-01-21 15:49:00,
2013-01-21 07:54:00,60.4,26.2,30.00,ESE,109,2.0,4.0,27,0.00,,,0.00,Wunderground v.1.15,2013-01-21 15:54:00,
2013-01-21 07:59:00,60.9,26.7,30.00,East,89,1.0,6.0,27,0.00,,,0.00,Wunderground v.1.15,2013-01-21 15:59:00,
2013-01-21 08:04:00,61.2,26.9,30.00,ESE,108,4.0,5.0,27,0.00,,,0.00,Wunderground v.1.15,2013-01-21 16:04:00,
2013-01-21 08:09:00,61.6,28.1,30.00,ESE,111,3.0,5.0,28,0.00,,,0.00,Wunderground v.1.15,2013-01-21 16:09:00,
2013-01-21 08:14:00,62.1,26.8,30.00,ESE,115,0.0,4.0,26,0.00,,,0.00,Wunderground v.1.15,2013-01-21 16:14:00,
2013-01-21 08:20:00,62.1,28.6,30.00,ESE,115,0.0,4.0,28,0.00,,,0.00,Wunderground v.1.15,2013-01-21 16:20:00,
2013-01-21 08:25:00,62.4,27.9,30.00,ESE,109,0.0,3.0,27,0.00,,,0.00,Wunderground v.1.15,2013-01-21 16:25:00,
2013-01-21 08:30:00,63.1,29.4,30.00,ESE,109,0.0,3.0,28,0.00,,,0.00,Wunderground v.1.15,2013-01-21 16:30:00,
2013-01-21 08:35:00,63.9,26.4,30.00,ESE,116,0.0,3.0,24,0.00,,,0.00,Wunderground v.1.15,2013-01-21 16:35:00,
2013-01-21 08:39:00,64.2,28.6,30.00,ESE,116,0.0,3.0,26,0.00,,,0.00,Wunderground v.1.15,2013-01-21 16:39:00,
2013-01-21 08:44:00,64.2,28.6,30.01,ESE,116,0.0,1.0,26,0.00,,,0.00,Wunderground v.1.15,2013-01-21 16:44:00,
2013-01-21 08:50:00,64.2,28.6,30.01,WSW,258,1.0,3.0,26,0.00,,,0.00,Wunderground v.1.15,2013-01-21 16:50:00,
2013-01-21 08:55:00,64.7,26.0,30.01,West,262,0.0,3.0,23,0.00,,,0.00,Wunderground v.1.15,2013-01-21 16:55:00,
2013-01-21 09:00:00,65.3,26.5,30.01,ESE,103,0.0,3.0,23,0.00,,,0.00,Wunderground v.1.15,2013-01-21 17:00:00,
2013-01-21 09:05:00,65.8,29.0,30.01,ESE,103,0.0,1.0,25,0.00,,,0.00,Wunderground v.1.15,2013-01-21 17:05:00,
2013-01-21 09:10:00,66.1,27.2,30.01,ESE,103,0.0,1.0,23,0.00,,,0.00,Wunderground v.1.15,2013-01-21 17:10:00,
2013-01-21 09:15:00,66.3,27.4,30.02,ESE,103,0.0,1.0,23,0.00,,,0.00,Wunderground v.1.15,2013-01-21 17:15:00,
2013-01-21 09:20:00,66.4,29.5,30.02,ESE,103,0.0,1.0,25,0.00,,,0.00,Wunderground v.1.15,2013-01-21 17:20:00,
2013-01-21 09:25:00,66.6,29.6,30.02,ESE,103,0.0,1.0,25,0.00,,,0.00,Wunderground v.1.15,2013-01-21 17:25:00,
2013-01-21 09:30:00,66.9,30.9,30.02,ESE,103,0.0,1.0,26,0.00,,,0.00,Wunderground v.1.15,2013-01-21 17:30:00,
2013-01-21 09:35:00,67.3,30.2,30.02,ESE,103,0.0,1.0,25,0.00,,,0.00,Wunderground v.1.15,2013-01-21 17:35:00,
2013-01-21 09:40:00,67.9,30.8,30.02,East,87,0.0,3.0,25,0.00,,,0.00,Wunderground v.1.15,2013-01-21 17:40:00,
2013-01-21 09:45:00,68.6,29.3,30.03,East,87,0.0,0.0,23,0.00,,,0.00,Wunderground v.1.15,2013-01-21 17:45:00,
2013-01-21 09:50:00,69.4,30.0,30.03,East,98,0.0,1.0,23,0.00,,,0.00,Wunderground v.1.15,2013-01-21 17:50:00,
2013-01-21 09:55:00,70.1,29.5,30.03,West,269,3.0,3.0,22,0.00,,,0.00,Wunderground v.1.15,2013-01-21 17:55:00,
2013-01-21 10:00:00,70.8,30.0,30.03,West,276,0.0,3.0,22,0.00,,,0.00,Wunderground v.1.15,2013-01-21 18:00:00,
2013-01-21 10:05:00,71.1,33.5,30.03,SW,236,2.0,3.0,25,0.00,,,0.00,Wunderground v.1.15,2013-01-21 18:05:00,
2013-01-21 10:10:00,70.6,35.9,30.03,SSW,200,0.0,3.0,28,0.00,,,0.00,Wunderground v.1.15,2013-01-21 18:10:00,
2013-01-21 10:15:00,68.9,37.8,30.04,WSW,253,2.0,6.0,32,0.00,,,0.00,Wunderground v.1.15,2013-01-21 18:15:00,
2013-01-21 10:20:00,67.8,39.1,30.04,West,270,0.0,6.0,35,0.00,,,0.00,Wunderground v.1.15,2013-01-21 18:20:00,
2013-01-21 10:25:00,67.6,39.7,30.04,West,259,2.0,5.0,36,0.00,,,0.00,Wunderground v.1.15,2013-01-21 18:25:00,
2013-01-21 10:30:00,67.1,42.6,30.05,West,261,1.0,5.0,41,0.00,,,0.00,Wunderground v.1.15,2013-01-21 18:30:00,
2013-01-21 10:35:00,67.3,42.8,30.05,West,261,0.0,2.0,41,0.00,,,0.00,Wunderground v.1.15,2013-01-21 18:35:00,
2013-01-21 10:40:00,68.1,44.1,30.05,North,359,2.0,2.0,42,0.00,,,0.00,Wunderground v.1.15,2013-01-21 18:40:00,
2013-01-21 10:45:00,69.1,44.4,30.04,North,0,0.0,2.0,41,0.00,,,0.00,Wunderground v.1.15,2013-01-21 18:45:00,
2013-01-21 10:50:00,69.6,44.8,30.04,North,0,0.0,0.0,41,0.00,,,0.00,Wunderground v.1.15,2013-01-21 18:50:00,
2013-01-21 10:55:00,69.8,45.7,30.04,North,0,0.0,1.0,42,0.00,,,0.00,Wunderground v.1.15,2013-01-21 18:55:00,
2013-01-21 11:00:00,69.9,46.4,30.04,WSW,253,0.0,0.0,43,0.00,,,0.00,Wunderground v.1.15,2013-01-21 19:00:00,
2013-01-21 11:05:00,68.8,47.2,30.04,West,259,5.0,5.0,46,0.00,,,0.00,Wunderground v.1.15,2013-01-21 19:05:00,
2013-01-21 11:10:00,67.4,47.0,30.04,West,271,2.0,2.0,48,0.00,,,0.00,Wunderground v.1.15,2013-01-21 19:10:00,
2013-01-21 11:15:00,66.3,46.6,30.05,WSW,245,4.0,6.0,49,0.00,,,0.00,Wunderground v.1.15,2013-01-21 19:15:00,
2013-01-21 11:20:00,64.8,46.2,30.05,West,264,1.0,3.0,51,0.00,,,0.00,Wunderground v.1.15,2013-01-21 19:20:00,
2013-01-21 11:25:00,64.0,45.0,30.05,West,264,1.0,3.0,50,0.00,,,0.00,Wunderground v.1.15,2013-01-21 19:25:00,
2013-01-21 11:30:00,63.7,45.7,30.04,West,264,0.0,1.0,52,0.00,,,0.00,Wunderground v.1.15,2013-01-21 19:30:00,
2013-01-21 11:35:00,64.0,44.4,30.04,West,280,4.0,5.0,49,0.00,,,0.00,Wunderground v.1.15,2013-01-21 19:35:00,
2013-01-21 11:40:00,63.9,43.8,30.04,West,279,0.0,1.0,48,0.00,,,0.00,Wunderground v.1.15,2013-01-21 19:40:00,
2013-01-21 11:45:00,64.0,43.9,30.04,WNW,282,0.0,4.0,48,0.00,,,0.00,Wunderground v.1.15,2013-01-21 19:45:00,
2013-01-21 11:50:00,65.2,43.9,30.04,NE,41,0.0,0.0,46,0.00,,,0.00,Wunderground v.1.15,2013-01-21 19:50:00,
2013-01-21 11:55:00,66.1,42.9,30.04,West,274,0.0,3.0,43,0.00,,,0.00,Wunderground v.1.15,2013-01-21 19:55:00,
2013-01-21 12:00:00,67.1,43.8,30.04,WNW,292,0.0,0.0,43,0.00,,,0.00,Wunderground v.1.15,2013-01-21 20:00:00,
2013-01-21 12:05:00,67.3,44.0,30.04,North,350,3.0,4.0,43,0.00,,,0.00,Wunderground v.1.15,2013-01-21 20:05:00,
2013-01-21 12:10:00,66.8,43.6,30.04,SE,137,0.0,2.0,43,0.00,,,0.00,Wunderground v.1.15,2013-01-21 20:10:00,
2013-01-21 12:15:00,66.6,44.0,30.03,SE,145,0.0,2.0,44,0.00,,,0.00,Wunderground v.1.15,2013-01-21 20:15:00,
2013-01-21 12:20:00,66.4,39.3,30.03,NNW,336,2.0,3.0,37,0.00,,,0.00,Wunderground v.1.15,2013-01-21 20:20:00,
2013-01-21 12:25:00,66.1,39.1,30.03,North,359,1.0,5.0,37,0.00,,,0.00,Wunderground v.1.15,2013-01-21 20:25:00,
2013-01-21 12:30:00,66.6,40.2,30.03,North,9,0.0,1.0,38,0.00,,,0.00,Wunderground v.1.15,2013-01-21 20:30:00,
2013-01-21 12:35:00,67.4,39.5,30.03,North,9,0.0,2.0,36,0.00,,,0.00,Wunderground v.1.15,2013-01-21 20:35:00,
2013-01-21 12:41:00,68.1,40.1,30.03,North,9,0.0,0.0,36,0.00,,,0.00,Wunderground v.1.15,2013-01-21 20:41:00,
2013-01-21 12:46:00,68.6,41.3,30.02,North,9,0.0,1.0,37,0.00,,,0.00,Wunderground v.1.15,2013-01-21 20:46:00,
2013-01-21 12:51:00,69.1,40.3,30.02,North,9,0.0,0.0,35,0.00,,,0.00,Wunderground v.1.15,2013-01-21 20:51:00,
2013-01-21 12:56:00,69.6,42.2,30.02,North,9,0.0,1.0,37,0.00,,,0.00,Wunderground v.1.15,2013-01-21 20:56:00,
2013-01-21 13:01:00,70.3,42.1,30.02,North,9,1.0,1.0,36,0.00,,,0.00,Wunderground v.1.15,2013-01-21 21:01:00,
2013-01-21 13:06:00,70.6,43.7,30.02,East,93,1.0,2.0,38,0.00,,,0.00,Wunderground v.1.15,2013-01-21 21:06:00,
2013-01-21 13:11:00,70.8,40.3,30.02,NE,53,0.0,0.0,33,0.00,,,0.00,Wunderground v.1.15,2013-01-21 21:11:00,
2013-01-21 13:16:00,70.9,40.3,30.01,NE,53,0.0,1.0,33,0.00,,,0.00,Wunderground v.1.15,2013-01-21 21:16:00,
2013-01-21 13:21:00,71.5,41.6,30.01,NE,53,0.0,0.0,34,0.00,,,0.00,Wunderground v.1.15,2013-01-21 21:21:00,
2013-01-21 13:26:00,71.5,40.1,30.01,NE,52,0.0,2.0,32,0.00,,,0.00,Wunderground v.1.15,2013-01-21 21:26:00,
2013-01-21 13:31:00,71.6,41.0,30.00,East,79,0.0,2.0,33,0.00,,,0.00,Wunderground v.1.15,2013-01-21 21:31:00,
2013-01-21 13:36:00,71.8,40.3,30.00,East,79,0.0,2.0,32,0.00,,,0.00,Wunderground v.1.15,2013-01-21 21:36:00,
2013-01-21 13:41:00,71.6,39.3,30.00,East,80,0.0,1.0,31,0.00,,,0.00,Wunderground v.1.15,2013-01-21 21:41:00,
2013-01-21 13:46:00,71.6,34.9,30.00,East,80,0.0,1.0,26,0.00,,,0.00,Wunderground v.1.15,2013-01-21 21:46:00,
2013-01-21 13:51:00,71.6,36.8,30.00,East,80,0.0,0.0,28,0.00,,,0.00,Wunderground v.1.15,2013-01-21 21:51:00,
2013-01-21 13:56:00,71.6,37.6,30.00,East,80,0.0,1.0,29,0.00,,,0.00,Wunderground v.1.15,2013-01-21 21:56:00,
2013-01-21 14:01:00,71.6,40.2,29.99,East,80,0.0,1.0,32,0.00,,,0.00,Wunderground v.1.15,2013-01-21 22:01:00,
2013-01-21 14:06:00,71.3,41.5,29.99,East,80,0.0,1.0,34,0.00,,,0.00,Wunderground v.1.15,2013-01-21 22:06:00,
2013-01-21 14:11:00,70.9,38.7,29.99,East,80,0.0,0.0,31,0.00,,,0.00,Wunderground v.1.15,2013-01-21 22:11:00,
2013-01-21 14:16:00,71.1,36.3,29.99,East,80,0.0,1.0,28,0.00,,,0.00,Wunderground v.1.15,2013-01-21 22:16:00,
2013-01-21 14:21:00,71.6,35.8,29.99,East,80,0.0,0.0,27,0.00,,,0.00,Wunderground v.1.15,2013-01-21 22:21:00,
2013-01-21 14:26:00,72.0,33.2,29.99,East,80,0.0,0.0,24,0.00,,,0.00,Wunderground v.1.15,2013-01-21 22:26:00,
2013-01-21 14:31:00,72.0,34.2,29.99,East,80,0.0,0.0,25,0.00,,,0.00,Wunderground v.1.15,2013-01-21 22:31:00,
2013-01-21 14:36:00,71.8,34.1,29.99,East,80,0.0,0.0,25,0.00,,,0.00,Wunderground v.1.15,2013-01-21 22:36:00,
2013-01-21 14:41:00,71.6,34.9,29.99,East,80,0.0,0.0,26,0.00,,,0.00,Wunderground v.1.15,2013-01-21 22:41:00,
2013-01-21 14:46:00,71.3,34.6,29.99,East,80,0.0,0.0,26,0.00,,,0.00,Wunderground v.1.15,2013-01-21 22:46:00,
2013-01-21 14:51:00,70.9,36.1,29.99,East,80,0.0,0.0,28,0.00,,,0.00,Wunderground v.1.15,2013-01-21 22:51:00,
2013-01-21 14:56:00,70.6,37.6,29.99,East,80,0.0,0.0,30,0.00,,,0.00,Wunderground v.1.15,2013-01-21 22:56:00,
2013-01-21 15:01:00,70.3,35.6,29.98,East,80,0.0,0.0,28,0.00,,,0.00,Wunderground v.1.15,2013-01-21 23:01:00,
2013-01-21 15:06:00,69.9,35.3,29.98,East,80,0.0,1.0,28,0.00,,,0.00,Wunderground v.1.15,2013-01-21 23:06:00,
2013-01-21 15:11:00,69.8,35.2,29.98,East,80,0.0,0.0,28,0.00,,,0.00,Wunderground v.1.15,2013-01-21 23:11:00,
2013-01-21 15:16:00,69.4,35.7,29.98,East,80,0.0,0.0,29,0.00,,,0.00,Wunderground v.1.15,2013-01-21 23:16:00,
2013-01-21 15:21:00,69.1,37.2,29.98,East,80,0.0,0.0,31,0.00,,,0.00,Wunderground v.1.15,2013-01-21 23:21:00,
2013-01-21 15:26:00,68.9,37.0,29.98,East,80,0.0,2.0,31,0.00,,,0.00,Wunderground v.1.15,2013-01-21 23:26:00,
2013-01-21 15:31:00,68.8,36.1,29.96,East,80,1.0,2.0,30,0.00,,,0.00,Wunderground v.1.15,2013-01-21 23:31:00,
2013-01-21 15:36:00,68.4,34.9,29.96,East,80,0.0,2.0,29,0.00,,,0.00,Wunderground v.1.15,2013-01-21 23:36:00,
2013-01-21 15:41:00,68.1,35.5,29.96,East,80,2.0,2.0,30,0.00,,,0.00,Wunderground v.1.15,2013-01-21 23:41:00,
2013-01-21 15:46:00,67.8,33.5,29.96,East,80,1.0,2.0,28,0.00,,,0.00,Wunderground v.1.15,2013-01-21 23:46:00,
2013-01-21 15:51:00,67.8,33.5,29.96,East,80,0.0,1.0,28,0.00,,,0.00,Wunderground v.1.15,2013-01-21 23:51:00,
2013-01-21 15:56:00,67.8,32.6,29.96,East,80,1.0,2.0,27,0.00,,,0.00,Wunderground v.1.15,2013-01-21 23:56:00,
2013-01-21 16:01:00,67.8,35.2,29.95,East,80,0.0,2.0,30,0.00,,,0.00,Wunderground v.1.15,2013-01-22 00:01:00,
2013-01-21 16:06:00,67.3,37.2,29.95,East,80,1.0,2.0,33,0.00,,,0.00,Wunderground v.1.15,2013-01-22 00:06:00,
2013-01-21 16:11:00,67.1,35.4,29.95,East,80,0.0,2.0,31,0.00,,,0.00,Wunderground v.1.15,2013-01-22 00:11:00,
2013-01-21 16:16:00,67.1,34.6,29.95,East,80,1.0,3.0,30,0.00,,,0.00,Wunderground v.1.15,2013-01-22 00:16:00,
2013-01-21 16:21:00,67.1,34.6,29.95,East,80,2.0,2.0,30,0.00,,,0.00,Wunderground v.1.15,2013-01-22 00:21:00,
2013-01-21 16:26:00,66.8,36.0,29.95,East,80,2.0,2.0,32,0.00,,,0.00,Wunderground v.1.15,2013-01-22 00:26:00,
2013-01-21 16:31:00,66.0,36.8,29.95,East,80,1.0,2.0,34,0.00,,,0.00,Wunderground v.1.15,2013-01-22 00:31:00,
2013-01-21 16:36:00,65.6,34.9,29.95,East,80,0.0,2.0,32,0.00,,,0.00,Wunderground v.1.15,2013-01-22 00:36:00,
2013-01-21 16:41:00,65.6,35.7,29.95,East,80,2.0,2.0,33,0.00,,,0.00,Wunderground v.1.15,2013-01-22 00:41:00,
2013-01-21 16:46:00,65.3,33.9,29.95,East,80,2.0,3.0,31,0.00,,,0.00,Wunderground v.1.15,2013-01-22 00:46:00,
2013-01-21 16:51:00,65.3,33.9,29.95,East,80,2.0,3.0,31,0.00,,,0.00,Wunderground v.1.15,2013-01-22 00:51:00,
2013-01-21 16:56:00,64.8,35.0,29.95,East,80,2.0,3.0,33,0.00,,,0.00,Wunderground v.1.15,2013-01-22 00:56:00,
2013-01-21 17:01:00,64.5,33.2,29.95,East,80,1.0,2.0,31,0.00,,,0.00,Wunderground v.1.15,2013-01-22 01:01:00,
2013-01-21 17:06:00,64.2,35.2,29.95,East,80,0.0,2.0,34,0.00,,,0.00,Wunderground v.1.15,2013-01-22 01:06:00,
2013-01-21 17:11:00,63.5,36.0,29.95,East,80,2.0,2.0,36,0.00,,,0.00,Wunderground v.1.15,2013-01-22 01:11:00,
2013-01-21 17:16:00,63.4,34.5,29.95,East,80,3.0,3.0,34,0.00,,,0.00,Wunderground v.1.15,2013-01-22 01:16:00,
2013-01-21 17:21:00,63.4,35.2,29.95,East,80,1.0,1.0,35,0.00,,,0.00,Wunderground v.1.15,2013-01-22 01:21:00,
2013-01-21 17:26:00,63.2,35.1,29.95,East,80,0.0,3.0,35,0.00,,,0.00,Wunderground v.1.15,2013-01-22 01:26:00,
2013-01-21 17:31:00,63.4,35.2,29.95,East,80,0.0,1.0,35,0.00,,,0.00,Wunderground v.1.15,2013-01-22 01:31:00,
2013-01-21 17:36:00,63.4,38.0,29.95,East,80,0.0,1.0,39,0.00,,,0.00,Wunderground v.1.15,2013-01-22 01:36:00,
2013-01-21 17:41:00,62.6,37.9,29.95,East,80,0.0,0.0,40,0.00,,,0.00,Wunderground v.1.15,2013-01-22 01:41:00,
2013-01-21 17:46:00,61.8,37.8,29.95,East,80,0.0,0.0,41,0.00,,,0.00,Wunderground v.1.15,2013-01-22 01:46:00,
2013-01-21 17:51:00,61.0,35.8,29.95,East,80,2.0,3.0,39,0.00,,,0.00,Wunderground v.1.15,2013-01-22 01:51:00,
2013-01-21 17:56:00,60.7,36.8,29.95,East,80,0.0,3.0,41,0.00,,,0.00,Wunderground v.1.15,2013-01-22 01:56:00,
2013-01-21 18:01:00,60.1,36.3,29.96,East,80,0.0,2.0,41,0.00,,,0.00,Wunderground v.1.15,2013-01-22 02:01:00,
2013-01-21 18:06:00,59.6,35.9,29.96,East,80,1.0,2.0,41,0.00,,,0.00,Wunderground v.1.15,2013-01-22 02:06:00,
2013-01-21 18:11:00,59.5,35.8,29.96,East,80,1.0,1.0,41,0.00,,,0.00,Wunderground v.1.15,2013-01-22 02:11:00,
2013-01-21 18:16:00,59.3,36.2,29.96,East,80,0.0,2.0,42,0.00,,,0.00,Wunderground v.1.15,2013-01-22 02:16:00,
2013-01-21 18:21:00,59.3,37.4,29.96,East,80,0.0,0.0,44,0.00,,,0.00,Wunderground v.1.15,2013-01-22 02:21:00,
2013-01-21 18:26:00,59.0,37.7,29.96,East,80,0.0,1.0,45,0.00,,,0.00,Wunderground v.1.15,2013-01-22 02:26:00,
2013-01-21 18:31:00,58.7,37.4,29.97,East,80,0.0,0.0,45,0.00,,,0.00,Wunderground v.1.15,2013-01-22 02:31:00,
2013-01-21 18:36:00,58.3,37.6,29.97,East,80,0.0,1.0,46,0.00,,,0.00,Wunderground v.1.15,2013-01-22 02:36:00,
2013-01-21 18:41:00,57.6,37.0,29.97,East,80,1.0,2.0,46,0.00,,,0.00,Wunderground v.1.15,2013-01-22 02:41:00,
2013-01-21 18:46:00,57.5,37.9,29.98,East,80,0.0,2.0,48,0.00,,,0.00,Wunderground v.1.15,2013-01-22 02:46:00,
2013-01-21 18:51:00,57.5,37.9,29.98,East,80,2.0,2.0,48,0.00,,,0.00,Wunderground v.1.15,2013-01-22 02:51:00,
2013-01-21 18:56:00,57.6,36.4,29.98,East,80,0.0,2.0,45,0.00,,,0.00,Wunderground v.1.15,2013-01-22 02:56:00,
2013-01-21 19:01:00,57.6,37.0,29.98,East,80,0.0,0.0,46,0.00,,,0.00,Wunderground v.1.15,2013-01-22 03:01:00,
2013-01-21 19:06:00,57.6,37.0,29.98,East,80,2.0,2.0,46,0.00,,,0.00,Wunderground v.1.15,2013-01-22 03:06:00,
2013-01-21 19:11:00,57.8,37.1,29.98,East,80,1.0,2.0,46,0.00,,,0.00,Wunderground v.1.15,2013-01-22 03:11:00,
2013-01-21 19:16:00,57.8,36.0,29.99,East,80,0.0,2.0,44,0.00,,,0.00,Wunderground v.1.15,2013-01-22 03:16:00,
2013-01-21 19:21:00,57.6,35.8,29.99,East,80,1.0,1.0,44,0.00,,,0.00,Wunderground v.1.15,2013-01-22 03:21:00,
2013-01-21 19:26:00,57.8,35.4,29.99,East,80,0.0,3.0,43,0.00,,,0.00,Wunderground v.1.15,2013-01-22 03:26:00,
2013-01-21 19:31:00,57.5,36.3,30.00,East,80,0.0,1.0,45,0.00,,,0.00,Wunderground v.1.15,2013-01-22 03:31:00,
2013-01-21 19:36:00,56.9,35.8,30.00,East,80,0.0,2.0,45,0.00,,,0.00,Wunderground v.1.15,2013-01-22 03:36:00,
2013-01-21 19:41:00,56.3,36.3,30.00,East,80,0.0,0.0,47,0.00,,,0.00,Wunderground v.1.15,2013-01-22 03:41:00,
2013-01-21 19:46:00,55.9,34.8,30.00,East,80,0.0,0.0,45,0.00,,,0.00,Wunderground v.1.15,2013-01-22 03:46:00,
2013-01-21 19:51:00,55.3,36.5,30.00,East,80,0.0,0.0,49,0.00,,,0.00,Wunderground v.1.15,2013-01-22 03:51:00,
2013-01-21 19:56:00,54.7,35.4,30.00,East,80,1.0,2.0,48,0.00,,,0.00,Wunderground v.1.15,2013-01-22 03:56:00,
2013-01-21 20:01:00,54.7,35.4,30.01,East,80,0.0,0.0,48,0.00,,,0.00,Wunderground v.1.15,2013-01-22 04:01:00,
2013-01-21 20:06:00,54.7,35.4,30.01,East,80,0.0,0.0,48,0.00,,,0.00,Wunderground v.1.15,2013-01-22 04:06:00,
2013-01-21 20:11:00,54.5,35.2,30.01,East,80,0.0,0.0,48,0.00,,,0.00,Wunderground v.1.15,2013-01-22 04:11:00,
2013-01-21 20:16:00,54.1,35.9,30.01,East,80,0.0,1.0,50,0.00,,,0.00,Wunderground v.1.15,2013-01-22 04:16:00,
2013-01-21 20:21:00,53.8,34.6,30.01,East,80,0.0,0.0,48,0.00,,,0.00,Wunderground v.1.15,2013-01-22 04:21:00,
2013-01-21 20:26:00,53.5,35.8,30.01,East,80,0.0,0.0,51,0.00,,,0.00,Wunderground v.1.15,2013-01-22 04:26:00,
2013-01-21 20:31:00,53.2,37.0,30.02,East,80,0.0,0.0,54,0.00,,,0.00,Wunderground v.1.15,2013-01-22 04:31:00,
2013-01-21 20:36:00,53.1,36.9,30.02,East,80,0.0,0.0,54,0.00,,,0.00,Wunderground v.1.15,2013-01-22 04:36:00,
2013-01-21 20:41:00,52.8,37.5,30.02,East,80,0.0,0.0,56,0.00,,,0.00,Wunderground v.1.15,2013-01-22 04:41:00,
2013-01-21 20:46:00,52.3,38.0,30.02,East,80,0.0,0.0,58,0.00,,,0.00,Wunderground v.1.15,2013-01-22 04:46:00,
2013-01-21 20:51:00,51.6,36.9,30.02,East,80,0.0,0.0,57,0.00,,,0.00,Wunderground v.1.15,2013-01-22 04:51:00,
2013-01-21 20:56:00,51.0,36.7,30.02,East,80,0.0,0.0,58,0.00,,,0.00,Wunderground v.1.15,2013-01-22 04:56:00,
2013-01-21 21:00:00,50.7,36.9,30.02,East,80,0.0,0.0,59,0.00,,,0.00,Wunderground v.1.15,2013-01-22 05:00:00,
2013-01-21 21:01:00,50.5,36.7,30.02,East,80,0.0,0.0,59,0.00,,,0.00,Wunderground v.1.15,2013-01-22 05:01:00,
2013-01-21 21:06:00,50.1,36.7,30.02,East,80,2.0,2.0,60,0.00,,,0.00,Wunderground v.1.15,2013-01-22 05:06:00,
2013-01-21 21:11:00,50.7,36.5,30.02,East,80,0.0,1.0,58,0.00,,,0.00,Wunderground v.1.15,2013-01-22 05:11:00,
2013-01-21 21:16:00,50.8,37.0,30.02,East,80,0.0,1.0,59,0.00,,,0.00,Wunderground v.1.15,2013-01-22 05:16:00,
2013-01-21 21:21:00,50.4,37.0,30.02,East,80,0.0,0.0,60,0.00,,,0.00,Wunderground v.1.15,2013-01-22 05:21:00,
2013-01-21 21:26:00,49.9,36.6,30.02,East,80,0.0,0.0,60,0.00,,,0.00,Wunderground v.1.15,2013-01-22 05:26:00,
2013-01-21 21:31:00,49.5,36.6,30.02,East,80,0.0,0.0,61,0.00,,,0.00,Wunderground v.1.15,2013-01-22 05:31:00,
2013-01-21 21:36:00,49.1,37.0,30.02,East,80,0.0,0.0,63,0.00,,,0.00,Wunderground v.1.15,2013-01-22 05:36:00,
2013-01-21 21:41:00,48.8,36.4,30.02,East,80,0.0,1.0,62,0.00,,,0.00,Wunderground v.1.15,2013-01-22 05:41:00,
2013-01-21 21:46:00,49.5,35.8,30.02,East,80,0.0,2.0,59,0.00,,,0.00,Wunderground v.1.15,2013-01-22 05:46:00,
2013-01-21 21:51:00,49.8,36.5,30.02,East,80,1.0,2.0,60,0.00,,,0.00,Wunderground v.1.15,2013-01-22 05:51:00,
2013-01-21 21:56:00,49.9,36.1,30.02,East,80,0.0,2.0,59,0.00,,,0.00,Wunderground v.1.15,2013-01-22 05:56:00,
2013-01-21 22:01:00,49.8,35.6,30.01,East,80,0.0,1.0,58,0.00,,,0.00,Wunderground v.1.15,2013-01-22 06:01:00,
2013-01-21 22:06:00,49.8,35.2,30.01,East,80,0.0,1.0,57,0.00,,,0.00,Wunderground v.1.15,2013-01-22 06:06:00,
2013-01-21 22:11:00,50.1,35.4,30.01,East,80,0.0,0.0,57,0.00,,,0.00,Wunderground v.1.15,2013-01-22 06:11:00,
2013-01-21 22:16:00,49.9,35.7,30.01,East,80,0.0,1.0,58,0.00,,,0.00,Wunderground v.1.15,2013-01-22 06:16:00,
2013-01-21 22:21:00,50.1,35.0,30.01,East,80,0.0,0.0,56,0.00,,,0.00,Wunderground v.1.15,2013-01-22 06:21:00,
2013-01-21 22:26:00,50.2,35.1,30.01,East,80,0.0,1.0,56,0.00,,,0.00,Wunderground v.1.15,2013-01-22 06:26:00,
2013-01-21 22:31:00,50.5,34.5,30.01,East,80,0.0,0.0,54,0.00,,,0.00,Wunderground v.1.15,2013-01-22 06:31:00,
2013-01-21 22:36:00,50.8,34.7,30.01,East,80,2.0,2.0,54,0.00,,,0.00,Wunderground v.1.15,2013-01-22 06:36:00,
2013-01-21 22:41:00,51.4,35.8,30.01,East,80,0.0,1.0,55,0.00,,,0.00,Wunderground v.1.15,2013-01-22 06:41:00,
2013-01-21 22:46:00,51.1,35.9,30.01,East,80,0.0,1.0,56,0.00,,,0.00,Wunderground v.1.15,2013-01-22 06:46:00,
2013-01-21 22:51:00,50.5,36.3,30.01,East,80,0.0,0.0,58,0.00,,,0.00,Wunderground v.1.15,2013-01-22 06:51:00,
2013-01-21 22:56:00,50.1,35.9,30.01,East,80,1.0,1.0,58,0.00,,,0.00,Wunderground v.1.15,2013-01-22 06:56:00,
2013-01-21 23:01:00,50.1,35.4,30.01,East,80,0.0,0.0,57,0.00,,,0.00,Wunderground v.1.15,2013-01-22 07:01:00,
2013-01-21 23:06:00,49.8,35.6,30.01,East,80,0.0,0.0,58,0.00,,,0.00,Wunderground v.1.15,2013-01-22 07:06:00,
2013-01-21 23:11:00,49.5,36.2,30.01,East,80,0.0,0.0,60,0.00,,,0.00,Wunderground v.1.15,2013-01-22 07:11:00,
2013-01-21 23:16:00,49.5,34.4,30.00,East,80,0.0,0.0,56,0.00,,,0.00,Wunderground v.1.15,2013-01-22 07:16:00,
2013-01-21 23:21:00,50.1,34.5,30.00,East,80,0.0,0.0,55,0.00,,,0.00,Wunderground v.1.15,2013-01-22 07:21:00,
2013-01-21 23:26:00,50.5,33.5,30.00,East,80,0.0,1.0,52,0.00,,,0.00,Wunderground v.1.15,2013-01-22 07:26:00,
2013-01-21 23:31:00,51.0,34.0,30.00,East,80,0.0,0.0,52,0.00,,,0.00,Wunderground v.1.15,2013-01-22 07:31:00,
2013-01-21 23:36:00,51.6,34.0,30.00,East,80,0.0,1.0,51,0.00,,,0.00,Wunderground v.1.15,2013-01-22 07:36:00,
2013-01-21 23:41:00,51.7,33.6,30.00,East,80,0.0,0.0,50,0.00,,,0.00,Wunderground v.1.15,2013-01-22 07:41:00,
2013-01-21 23:46:00,52.0,34.4,30.00,East,80,1.0,2.0,51,0.00,,,0.00,Wunderground v.1.15,2013-01-22 07:46:00,
2013-01-21 23:51:00,52.8,34.2,30.00,East,80,1.0,2.0,49,0.00,,,0.00,Wunderground v.1.15,2013-01-22 07:51:00,
2013-01-21 23:56:00,53.2,34.0,30.00,East,80,0.0,2.0,48,0.00,,,0.00,Wunderground v.1.15,2013-01-22 07:56:00,